Regional Weather Roundup
Issued by NWS

Home | Current Version | Previous Version | Graphics & Text | Print | Product List | Glossary On
Versions: 1 2 3 4 5 6 7 8 9 10 11 12 13 14 15 16 17 18 19 20 21 22 23 24 25 26 27 28 29 30 31 32 33 34 35 36 37 38 39 40 41 42 43 44 45 46 47 48 49 50
000
ASUS43 KDMX 222101
RWRIA

WEATHER ROUNDUP FOR IOWA
NATIONAL WEATHER SERVICE DES MOINES IA
400 PM CDT WED MAR 22 2017

NOTE: "FAIR" INDICATES FEW OR NO CLOUDS BELOW 12,000 FEET WITH NO
SIGNIFICANT WEATHER AND/OR OBSTRUCTIONS TO VISIBILITY.

* - THESE STATIONS ARE NOT NWS STATIONS...THUS NOT UNDER NWS
QUALITY CONTROL.  THEY ALSO DO NOT REPORT WEATHER SUCH
AS PRECIPITATION OR FOG.

IAZ001>003-012>014-020>022-031>034-043>046-222200-
   NORTHWEST IOWA

CITY           SKY/WX    TMP DP  RH WIND       PRES   REMARKS
CARROLL *      CLOUDY    41  27  56 SE18G24   30.33F
CHEROKEE *     CLOUDY    39  25  56 SE16G22   30.31F WCI  30
DENISON *      CLOUDY    43  28  56 SE12G21   30.28F
LE MARS *      CLOUDY    39  25  56 SE14G23   30.28F WCI  31
ORANGE CITY *  CLOUDY    37  25  60 SE10G21   30.27F WCI  30
SHELDON *      CLOUDY    36  28  75 SE20G25   30.27F WCI  25
SIOUX CITY     CLOUDY    42  26  53 SE21      30.27F
SPENCER        CLOUDY    37  24  59 SE16      30.33F WCI  28
STORM LAKE *   CLOUDY    39  23  52 SE18      30.30F WCI  30
$$

IAZ055>058-069>071-079>083-090>094-222200-
   SOUTHWEST IOWA

CITY           SKY/WX    TMP DP  RH WIND       PRES   REMARKS
ATLANTIC *     SUNNY     48  25  40 SE9G22    30.30F
AUDUBON *      CLOUDY    46  30  53 SE14G24   30.32F
CLARINDA *     CLOUDY    48  27  43 SE13G21   30.31F
COUNCIL BLFS * CLOUDY    48  23  37 SE15      30.26F
CRESTON *      CLOUDY    48  23  37 SE20      30.31F
HARLAN  *      CLOUDY    46  25  42 SE16G24   30.32F
LAMONI         CLOUDY    47  25  42 E10G18    30.33F
RED OAK *      CLOUDY    50  23  34 SE13G24   30.28F
SHENANDOAH *   CLOUDY    50  25  37 SE17      30.28F
$$

IAZ047>049-059>061-072>074-084-222200-
   CENTRAL IOWA

CITY           SKY/WX    TMP DP  RH WIND       PRES   REMARKS
AMES           CLOUDY    44  23  43 SE14      30.37F
ANKENY *       CLOUDY    43  23  45 SE12G25   30.38F
BOONE *        CLOUDY    43  21  42 SE15      30.35F
CHARITON *     CLOUDY    46  21  36 SE12G18   30.36F
DES MOINES     CLOUDY    45  23  42 SE13      30.37F
GRINNELL*      CLOUDY    44  17  33 E14       30.41F
KNOXVILLE *    MOSUNNY   46  21  36 E13G18    30.36F
MARSHALLTOWN   MOSUNNY   43  19  38 E15       30.39F
NEWTON *       PTSUNNY   45  18  33 SE16      30.38F
PELLA *        MOSUNNY   46  23  40 SE13      30.41F
PERRY *        CLOUDY    41  23  47 SE14      30.36F
$$

IAZ004>006-015-016-023>025-035-036-222200-
   NORTH CENTRAL IOWA

CITY           SKY/WX    TMP DP  RH WIND       PRES   REMARKS
ALGONA *       MOSUNNY   37  25  60 SE15G23   30.35F WCI  28
CLARION *      MOSUNNY   41  23  48 SE16      30.37F
ESTHERVILLE    CLOUDY    35  24  64 SE20      30.34F WCI  24
FORT DODGE *   CLOUDY    41  19  42 SE12G17   30.36F
MASON CITY     CLOUDY    38  18  44 SE15      30.41F WCI  29
FOREST CITY *  PTSUNNY   37  21  52 SE12      30.38F WCI  30
WEBSTER CITY * MOSUNNY   43  19  39 SE18      30.34F
IOWA FALLS *     N/A     42  21  43 SE9       30.39F
$$

IAZ007>011-017>019-026>030-037>042-050>054-066-222200-
   NORTHEAST IOWA

CITY           SKY/WX    TMP DP  RH WIND       PRES   REMARKS
CEDAR RAPIDS   SUNNY     42  15  33 SE14G21   30.43F
CHARLES CITY * CLOUDY    39  16  38 SE13G20   30.41F WCI  32
CLINTON *      SUNNY     42  21  43 E14G20    30.47F
DECORAH *      MOSUNNY   37  10  32 SE9G17    30.44F WCI  31
DUBUQUE        SUNNY     39  12  33 SE10G18   30.45F WCI  32
MONTICELLO *   SUNNY     41  12  30 SE10G16   30.45F
OELWEIN *      MOSUNNY   41  14  33 SE14      30.43F
WATERLOO       MOSUNNY   41  13  31 SE13      30.42F
$$

IAZ064-065-067-068-078-222200-
   EAST CENTRAL IOWA

CITY           SKY/WX    TMP DP  RH WIND       PRES   REMARKS
DAVENPORT      SUNNY     42  15  33 E12       30.46F
IOWA CITY      MOSUNNY   45  17  32 SE12      30.45F
MUSCATINE *    MOSUNNY   45  18  33 E14       30.45F
QUAD CITIES    SUNNY     43  17  35 SE10      30.46F
$$

IAZ062-063-075>077-085>089-095>099-222200-
   SOUTHEAST IOWA

CITY           SKY/WX    TMP DP  RH WIND       PRES   REMARKS
BURLINGTON     MOSUNNY   45  17  32 E9        30.42F
FAIRFIELD *    MOSUNNY   45  19  36 SE9G17    30.41F
FORT MADISON * MOSUNNY   50  18  27 E10G18    30.42F
KEOKUK *       SUNNY     46  16  29 E15       30.40F
OSKALOOSA *    PTSUNNY   44  22  40 SE12G20   30.40F
CENTERVILLE *    N/A     48  19  32 E14       30.38S
OTTUMWA        PTSUNNY   46  21  37 E15       30.39F
WASHINGTON *   MOSUNNY   43  18  36 E13       30.44S
$$

ABBREVIATIONS USED IN REMARKS
   TC - TEMPERATURES IN CELSIUS
  WCI - WIND CHILL INDEX
   HX - HEAT INDEX
  VSB - VISIBILITY
$$





USA.gov is the U.S. government's official web portal to all federal, state and local government web resources and services.